[[{"header":{"parameterUnit":"m.s-1","parameterCategory":1,"la1":30.2991,"la2":30.254,"lo1":-89.0895,"lo2":-89.0444,"dy":0.0017,"dx":0.0017,"nx":28,"ny":28,"refTime":"2024-06-08T03:00:00:Z","depth":0,"parameterNumber":2,"parameterNumberName":"U-component_of_WINDS"},"data":[0,0,0,0,0,0,0,0,0,0,0,0,0,0,0,0,0,0,0,0,0,0,0,0,0,0,0,0,0,0,0,0,0,0,0,0,0,0,0,0,0,0,0,0,0,0,0,0,0,0,0,0,0,0,0,0,0,0,1.4587,1.4587,0,1.4586,1.4586,1.4586,1.4539,1.4538,1.4537,1.4535,1.4536,1.4537,1.4538,0,0,0,0,0,0,0,0,0,0,0,0,0,1.4548,1.4549,1.4587,1.4587,1.4587,1.4586,1.4586,1.4586,1.4539,1.4538,1.4536,1.4535,1.4535,1.4536,1.4538,0,0,0,0,0,0,0,0,0,0,0,0,0,1.4557,1.4549,1.4587,1.4563,1.4561,1.4586,1.4586,1.4586,1.454,1.4538,1.4536,1.4534,1.4535,1.4536,1.4538,1.4585,0,0,1.4543,1.4544,0,0,0,0,0,0,0,0,1.4557,1.4559,1.4567,1.4565,1.4563,1.4561,1.4572,1.4586,1.454,1.4548,1.4535,1.4533,1.4545,1.4546,1.455,1.4585,1.4585,1.4543,1.4544,1.4545,1.4546,0,0,0,0,0,0,0,1.4556,1.4559,1.4586,1.4567,1.4564,1.4553,1.4552,1.4574,1.4557,1.4547,1.4544,1.4544,1.4544,1.4549,1.455,1.4585,1.4543,1.4545,1.4546,1.4547,1.4657,1.4658,0,0,0,0,0,0,1.4559,1.4558,1.4586,1.4586,1.4555,1.4555,1.4554,1.4563,1.4557,1.4554,1.4546,1.4542,1.4546,1.4548,1.455,1.4602,1.4545,1.4547,1.4548,1.4655,1.4657,1.4659,0,0,0,0,0,0,1.4558,1.4562,1.4586,1.4571,1.4574,1.4558,1.4568,1.4564,1.4569,1.4556,1.4552,1.4553,1.4545,1.4547,1.4576,1.4602,1.4548,1.4549,1.4653,1.4655,1.4658,1.471,0,0,0,0,0,0,1.4557,1.4562,1.458,1.4572,1.4575,1.4613,1.457,1.4565,1.4571,1.4567,1.4562,1.4559,1.4544,1.4574,1.4578,1.4603,1.455,1.465,1.4654,1.4657,1.4706,1.4714,1.4721,0,0,0,0,0,1.4556,1.4595,1.4581,1.4585,1.4597,1.4615,1.4616,1.4597,1.4574,1.4591,1.4583,1.456,1.4599,1.4577,1.4581,1.4608,1.4648,1.4653,1.4657,1.4702,1.4713,1.4721,0,0,0,0,0,0,1.4607,1.4594,1.4578,1.4616,1.4617,1.4607,1.4629,1.4609,1.4617,1.4612,1.4588,1.4588,1.462,1.4617,1.4593,1.4652,1.4619,1.4625,1.4652,1.4662,1.467,1.4669,1.4552,0,0,0,0,0,1.4623,1.4638,1.4626,1.4661,1.4662,1.4645,1.4653,1.4638,1.4638,1.4638,1.4631,1.4633,1.4645,1.4653,1.4664,1.4705,1.4703,1.4725,1.4733,1.474,1.4744,1.4764,1.4773,1.4673,1.4673,1.4673,0,0,1.4655,1.465,1.4662,1.4671,1.467,1.4686,1.4646,1.4666,1.4677,1.4641,1.4667,1.4663,1.4662,1.4697,1.4712,1.4695,1.4771,1.4745,1.475,1.4751,1.4769,1.4778,1.4787,1.4676,1.4675,1.4675,0,0,1.4722,1.4721,1.4748,1.4747,1.4746,1.4734,1.4741,1.4734,1.4729,1.4755,1.4728,1.4741,1.4764,1.4763,1.4767,1.4832,1.481,1.4836,1.4876,1.4896,1.4904,1.491,1.4932,1.494,1.4841,1.4841,1.4841,0,1.4763,1.4786,1.4765,1.4785,1.479,1.4757,1.4784,1.4785,1.4787,1.479,1.4772,1.4797,1.4795,1.4828,1.4844,1.4848,1.4854,1.4836,1.4904,1.4911,1.4917,1.4937,1.4946,1.4844,1.4844,1.4844,1.4843,0,1.4835,1.4852,1.4874,1.4876,1.4883,1.4907,1.4888,1.4898,1.4882,1.4873,1.4898,1.4894,1.4903,1.491,1.4895,1.494,1.493,1.4908,1.4875,1.493,1.4948,1.4956,1.4849,1.4847,1.4847,1.4846,0,0,1.4935,1.4923,1.4932,1.4931,1.4926,1.4939,1.4961,1.4968,1.4976,1.4979,1.4995,1.5014,1.4993,1.4997,1.4982,1.4999,1.5049,1.4975,1.4974,1.4987,1.5096,1.5111,1.5121,1.5035,1.5036,1.5037,1.5096,0,1.4998,1.5034,1.5015,1.5053,1.5067,1.5036,1.5055,1.5054,1.5045,1.5056,1.5046,1.5059,1.5032,1.5033,1.5049,1.5039,1.507,1.5035,1.5049,1.505,1.5049,1.5131,1.5147,1.5203,1.5103,1.5104,1.5105,0,1.5077,1.5081,1.5121,1.5112,1.5117,1.5134,1.5138,1.5149,1.5147,1.5139,1.5142,1.5123,1.5143,1.511,1.5137,1.5114,1.5118,1.5115,1.5116,1.5116,1.508,1.5131,1.522,1.5228,1.5117,1.5116,1.5115,0,1.5143,1.5159,1.5184,1.5185,1.5176,1.5188,1.5185,1.518,1.5185,1.5189,1.5192,1.5199,1.5202,1.5208,1.519,1.5168,1.5218,1.5185,1.5212,1.5212,1.5223,1.5222,1.5312,1.5229,1.5228,1.5228,1.5228,0,1.5215,1.524,1.5213,1.5229,1.5256,1.5233,1.526,1.5253,1.525,1.5263,1.5237,1.525,1.5226,1.5237,1.5223,1.5246,1.5249,1.5242,1.5238,1.5244,1.5244,1.5245,1.5241,1.523,1.523,1.523,1.5229,0,1.5293,1.5276,1.5301,1.529,1.5287,1.5307,1.5297,1.531,1.53,1.5316,1.5319,1.5302,1.5313,1.5296,1.5305,1.5296,1.5327,1.5318,1.5328,1.5325,1.5351,1.5348,1.5444,1.5455,1.5366,1.5367,1.5368,0,1.5339,1.5357,1.5347,1.5353,1.5351,1.5362,1.5367,1.5345,1.5351,1.5349,1.5362,1.537,1.5376,1.5394,1.5383,1.5389,1.5379,1.5412,1.538,1.5384,1.5377,1.5376,1.5377,1.5418,1.5419,1.542,1.5421,0,1.5422,1.5412,1.542,1.5424,1.5429,1.5432,1.5432,1.5439,1.5416,1.5424,1.5434,1.5438,1.5447,1.5455,1.5458,1.5455,1.5434,1.5431,1.5437,1.5443,1.5447,1.5443,1.5344,1.5429,1.5428,1.5428,1.5427,1.5427,1.5484,1.5498,1.5492,1.5501,1.5498,1.5499,1.551,1.55,1.5508,1.5513,1.55,1.5513,1.5508,1.5511,1.5509,1.5518,1.5504,1.5513,1.5515,1.5518,1.5521,1.5446,1.5519,1.5519,1.5519,1.5519,1.5518,0,1.5564,1.5558,1.5566,1.5567,1.5573,1.5553,1.5552,1.5558,1.557,1.5568,1.5573,1.5584,1.5591,1.558,1.5585,1.5595,1.5585,1.5597,1.5595,1.5594,1.5535,1.5528,1.5604,1.5604,1.5604,1.5604,1.5604,1.5604,1.5606,1.5627,1.5617,1.5637,1.5631,1.5643,1.5644,1.5644,1.5642,1.5655,1.566,1.5653,1.5647,1.5651,1.5657,1.5653,1.5656,1.567,1.5663,1.5607,1.5599,1.5591,1.5584,1.5671,1.5672,1.5722,1.5722,1.5723]},{"header":{"parameterUnit":"m.s-1","parameterCategory":1,"la1":30.2991,"la2":30.254,"lo1":-89.0895,"lo2":-89.0444,"dy":0.0017,"dx":0.0017,"nx":28,"ny":28,"refTime":"2024-06-08T03:00:00:Z","depth":0,"parameterNumber":3,"parameterNumberName":"V-component_of_WINDS"},"data":[0,0,0,0,0,0,0,0,0,0,0,0,0,0,0,0,0,0,0,0,0,0,0,0,0,0,0,0,0,0,0,0,0,0,0,0,0,0,0,0,0,0,0,0,0,0,0,0,0,0,0,0,0,0,0,0,0,0,4.8699,4.87,0,4.8821,4.8823,4.8824,4.8806,4.8804,4.8802,4.88,4.8918,4.8923,4.8928,0,0,0,0,0,0,0,0,0,0,0,0,0,4.8442,4.8447,4.8699,4.87,4.8702,4.8821,4.8823,4.8824,4.8807,4.8804,4.8802,4.8799,4.8916,4.8922,4.8928,0,0,0,0,0,0,0,0,0,0,0,0,0,4.8558,4.8449,4.8699,4.8708,4.871,4.8821,4.8823,4.8825,4.8807,4.8804,4.8801,4.8798,4.8914,4.8922,4.8929,4.9036,0,0,4.8952,4.8955,0,0,0,0,0,0,0,0,4.8551,4.8567,4.8705,4.8707,4.871,4.8796,4.8775,4.8896,4.8808,4.877,4.88,4.8797,4.8879,4.8889,4.8919,4.9042,4.9047,4.8953,4.8957,4.896,4.8963,0,0,0,0,0,0,0,4.8543,4.8562,4.8747,4.8707,4.871,4.8703,4.8716,4.8798,4.884,4.8773,4.8772,4.8787,4.888,4.8912,4.8921,4.9049,4.8952,4.8959,4.8964,4.8967,4.9264,4.9267,0,0,0,0,0,0,4.8534,4.8555,4.8743,4.8751,4.8622,4.871,4.8725,4.8771,4.8839,4.8847,4.879,4.8786,4.89,4.8913,4.8925,4.9054,4.896,4.8967,4.8972,4.9261,4.9265,4.9268,0,0,0,0,0,0,4.8529,4.8551,4.8738,4.8653,4.8676,4.8718,4.877,4.8775,4.8807,4.8852,4.8858,4.8815,4.8898,4.8915,4.9009,4.9058,4.8971,4.8978,4.9257,4.9262,4.9267,4.9313,0,0,0,0,0,0,4.8521,4.8549,4.8592,4.8654,4.8681,4.8822,4.8773,4.878,4.8821,4.8817,4.8877,4.8884,4.8897,4.8998,4.9017,4.9067,4.8984,4.9252,4.9259,4.9265,4.9308,4.9319,4.933,0,0,0,0,0,4.8512,4.8599,4.8595,4.8617,4.8736,4.8825,4.884,4.8856,4.8825,4.8867,4.8896,4.8882,4.905,4.9008,4.9029,4.9082,4.9249,4.9257,4.9264,4.9303,4.9317,4.9329,0,0,0,0,0,0,4.8539,4.8608,4.8603,4.8713,4.8764,4.8822,4.8876,4.8871,4.8929,4.8923,4.8938,4.8951,4.9046,4.9074,4.9025,4.9188,4.9145,4.9157,4.9167,4.9181,4.9192,4.9182,4.899,0,0,0,0,0,4.8559,4.8628,4.8683,4.8775,4.8801,4.8834,4.8873,4.8881,4.8933,4.8954,4.8989,4.9038,4.9102,4.9143,4.9204,4.9312,4.9323,4.9359,4.937,4.9378,4.9388,4.9445,4.9461,4.9293,4.9293,4.9293,0,0,4.8598,4.8644,4.8686,4.8781,4.8821,4.889,4.8852,4.8927,4.8977,4.8964,4.9056,4.9084,4.9139,4.924,4.9286,4.9265,4.9437,4.9388,4.9395,4.94,4.9454,4.947,4.9484,4.9298,4.9297,4.9297,0,0,4.8705,4.8748,4.8829,4.887,4.8932,4.8954,4.8973,4.9033,4.9052,4.9144,4.9136,4.9194,4.9305,4.9344,4.9378,4.95,4.9488,4.9519,4.9576,4.9631,4.9644,4.9656,4.9697,4.9712,4.9529,4.9529,4.9529,0,4.8746,4.8852,4.887,4.8946,4.8986,4.8981,4.9061,4.91,4.9177,4.9204,4.9181,4.9318,4.9355,4.9464,4.9494,4.9523,4.9543,4.9512,4.9641,4.9653,4.9664,4.9704,4.9719,4.9532,4.9532,4.9532,4.9531,0,4.8897,4.8971,4.9028,4.9106,4.9153,4.923,4.9258,4.9303,4.9307,4.933,4.9423,4.9468,4.9537,4.9564,4.9567,4.9673,4.9658,4.9638,4.9594,4.9683,4.972,4.9736,4.9537,4.9536,4.9535,4.9534,0,0,4.9023,4.9111,4.9132,4.9166,4.9235,4.929,4.9366,4.9437,4.9474,4.9528,4.959,4.9684,4.9665,4.9704,4.9712,4.9761,4.9852,4.9735,4.9736,4.9753,4.9969,4.9982,5.0,4.9846,4.9849,4.9852,4.9963,0,4.9135,4.9273,4.9291,4.9412,4.9478,4.9474,4.954,4.9587,4.9611,4.9669,4.9694,4.976,4.9732,4.9755,4.9804,4.9831,4.9895,4.9823,4.9901,4.9904,4.9886,5.0019,5.0034,5.0137,4.9978,4.9981,4.9983,0,4.9284,4.9344,4.9472,4.953,4.9559,4.9618,4.9683,4.974,4.9793,4.9806,4.985,4.9852,4.9928,4.9883,4.9986,4.9937,4.997,4.9988,4.9992,4.9998,4.9947,5.0027,5.0171,5.0186,5.0006,5.0004,5.0003,0,4.936,4.9473,4.9564,4.9594,4.9665,4.9707,4.9737,4.9788,4.9828,4.9885,4.9911,4.9974,5.0009,5.0057,5.0074,5.0041,5.0176,5.0133,5.0187,5.0186,5.0214,5.0211,5.0363,5.0239,5.0239,5.0238,5.0238,0,4.9482,4.956,4.9599,4.9655,4.9741,4.9761,4.9844,4.9873,4.9918,4.9977,4.9977,5.0032,5.0053,5.0111,5.0125,5.0207,5.0223,5.0234,5.0236,5.0233,5.0231,5.0253,5.0245,5.0242,5.0241,5.0241,5.024,0,4.9581,4.9611,4.971,4.9769,4.9786,4.9847,4.9896,4.9949,4.9973,5.0047,5.0065,5.0102,5.0169,5.0193,5.0274,5.0284,5.0378,5.0376,5.0361,5.0361,5.0413,5.0407,5.0582,5.0605,5.0468,5.0469,5.047,0,4.9656,4.9716,4.9783,4.9823,4.9857,4.9922,4.9964,4.9986,5.0029,5.0094,5.0137,5.0205,5.026,5.0368,5.04,5.0462,5.0459,5.0516,5.0468,5.0462,5.0457,5.0453,5.0458,5.0524,5.0526,5.0527,5.0528,0,4.9784,4.9796,4.9859,4.9926,4.9977,5.003,5.0082,5.0114,5.0143,5.0191,5.0262,5.0305,5.0389,5.0455,5.0518,5.0547,5.0541,5.0544,5.0559,5.0555,5.0543,5.0548,5.0383,5.0539,5.0538,5.0537,5.0536,5.0536,4.9872,4.9925,4.998,5.0049,5.009,5.0138,5.019,5.0221,5.0281,5.0353,5.0361,5.0437,5.0486,5.0571,5.0603,5.066,5.0644,5.0667,5.0672,5.0677,5.068,5.0536,5.0672,5.0672,5.0672,5.0671,5.0671,0,4.9998,5.0034,5.0098,5.0171,5.0224,5.0218,5.0274,5.0318,5.0386,5.0434,5.0489,5.0569,5.0633,5.0671,5.0734,5.0773,5.0772,5.0789,5.0785,5.0791,5.0692,5.0671,5.0788,5.0788,5.0788,5.0788,5.0788,5.0788,5.0071,5.0159,5.0177,5.0285,5.032,5.0395,5.0428,5.0471,5.051,5.06,5.0654,5.068,5.0723,5.079,5.0847,5.0857,5.0879,5.0897,5.0904,5.081,5.0798,5.0786,5.0767,5.0902,5.0903,5.0998,5.0999,5.1]}]]